,,PA_Meas_PMT16A,,PR_Meas_QMR101_102,,RH_Meas_QMH101,,SR_Meas_QMS101,,TA_Meas_QMH101,,GenWind,,GenWind,
time,status,PA,status,PR,status,RH,status,SR,status,TA,status,DirAvg,status,SpdAvg,
2012-01-22, 00:00:04,VALID,917.302,VALID,0,VALID,91.4124,VALID,0,VALID,20.2879,VALID,15,VALID,0.616016,
2012-01-22, 00:01:04,VALID,917.248,VALID,0,VALID,90.833,VALID,0,VALID,20.2684,VALID,15,VALID,1.14023,
2012-01-22, 00:02:04,VALID,917.237,VALID,0,VALID,91.3285,VALID,0,VALID,20.1498,VALID,15,VALID,1.16133,
2012-01-22, 00:03:04,VALID,917.195,VALID,0,VALID,91.9613,VALID,0,VALID,20.1108,VALID,15,VALID,0.782031,
2012-01-22, 00:04:04,VALID,917.228,VALID,0,VALID,91.9308,VALID,0,VALID,20.0898,VALID,15,VALID,0.428125,
2012-01-22, 00:05:04,VALID,917.2,VALID,0,VALID,92.0375,VALID,0,VALID,20.1303,VALID,15,VALID,0,
2012-01-22, 00:06:04,VALID,917.177,VALID,0,VALID,91.8164,VALID,0,VALID,20.1693,VALID,15,VALID,0,
2012-01-22, 00:07:04,VALID,917.175,VALID,0,VALID,91.2752,VALID,0,VALID,20.1888,VALID,15,VALID,0.161328,
2012-01-22, 00:08:04,VALID,917.151,VALID,0,VALID,91.2752,VALID,0,VALID,20.1903,VALID,15,VALID,0.341406,
2012-01-22, 00:09:04,VALID,917.151,VALID,0,VALID,91.42,VALID,0,VALID,20.1903,VALID,15,VALID,0.460156,
2012-01-22, 00:10:04,VALID,917.142,VALID,0,VALID,91.5953,VALID,0,VALID,20.1693,VALID,15,VALID,0.217578,
2012-01-22, 00:11:04,VALID,917.148,VALID,0,VALID,91.2142,VALID,0,VALID,20.1513,VALID,15,VALID,0.453516,
2012-01-22, 00:12:04,VALID,917.127,VALID,0,VALID,91.4352,VALID,0,VALID,20.0928,VALID,15,VALID,0.626562,
2012-01-22, 00:13:04,VALID,917.123,VALID,0,VALID,91.7249,VALID,0,VALID,19.9953,VALID,15,VALID,0.710938,
2012-01-22, 00:14:04,VALID,917.128,VALID,0,VALID,92.007,VALID,0,VALID,19.9158,VALID,15,VALID,0.833984,
2012-01-22, 00:15:04,VALID,917.149,VALID,0,VALID,92.19,VALID,0,VALID,19.8198,VALID,15,VALID,0.873438,
2012-01-22, 00:16:04,VALID,917.154,VALID,0,VALID,92.5254,VALID,0,VALID,19.8018,VALID,15,VALID,0.941797,
2012-01-22, 00:17:04,VALID,917.162,VALID,0,VALID,93.0133,VALID,0,VALID,19.7403,VALID,15,VALID,0.892969,
2012-01-22, 00:18:04,VALID,917.168,VALID,0,VALID,93.2801,VALID,0,VALID,19.7403,VALID,15,VALID,0.998828,
2012-01-22, 00:19:04,VALID,917.138,VALID,0,VALID,93.2344,VALID,0,VALID,19.7193,VALID,15,VALID,0.81875,
2012-01-22, 00:20:04,VALID,917.163,VALID,0,VALID,93.0895,VALID,0,VALID,19.6803,VALID,15,VALID,0.726172,
2012-01-22, 00:21:04,VALID,917.147,VALID,0,VALID,93.1429,VALID,0,VALID,19.6608,VALID,15,VALID,0.702734,
2012-01-22, 00:22:04,VALID,917.178,VALID,0,VALID,92.9752,VALID,0,VALID,19.6623,VALID,15,VALID,0.578516,
2012-01-22, 00:23:04,VALID,917.174,VALID,0,VALID,92.9447,VALID,0,VALID,19.6233,VALID,15,VALID,0.523438,
2012-01-22, 00:24:04,VALID,917.185,VALID,0,VALID,93.1276,VALID,0,VALID,19.6443,VALID,15,VALID,0.69375,
2012-01-22, 00:25:04,VALID,917.168,VALID,0,VALID,93.4783,VALID,0,VALID,19.6248,VALID,15,VALID,1.13672,
2012-01-22, 00:26:04,VALID,917.208,VALID,0,VALID,93.8519,VALID,0,VALID,19.7058,VALID,15,VALID,1.55039,
2012-01-22, 00:27:04,VALID,917.181,VALID,0,VALID,93.829,VALID,0,VALID,19.6803,VALID,35,VALID,1.59297,
2012-01-22, 00:28:04,VALID,917.195,VALID,0,VALID,93.6537,VALID,0,VALID,19.6998,VALID,136,VALID,1.42148,
2012-01-22, 00:29:04,VALID,917.172,VALID,0,VALID,93.5088,VALID,0,VALID,19.7193,VALID,136,VALID,1.22891,
2012-01-22, 00:30:04,VALID,917.206,VALID,0,VALID,93.4707,VALID,0.107441,VALID,19.7208,VALID,136,VALID,0.616016,
2012-01-22, 00:31:04,VALID,917.216,VALID,0,VALID,93.5241,VALID,0,VALID,19.7208,VALID,136,VALID,0.758984,
2012-01-22, 00:32:04,VALID,917.242,VALID,0,VALID,93.4859,VALID,0,VALID,19.7193,VALID,136,VALID,0.222656,
2012-01-22, 00:33:04,VALID,917.224,VALID,0,VALID,93.1963,VALID,0,VALID,19.7418,VALID,136,VALID,0.483203,
2012-01-22, 00:34:04,VALID,917.218,VALID,0,VALID,93.4326,VALID,0,VALID,19.7403,VALID,136,VALID,0.375391,
2012-01-22, 00:35:04,VALID,917.212,VALID,0,VALID,93.425,VALID,0,VALID,19.7793,VALID,136,VALID,0,
2012-01-22, 00:36:04,VALID,917.191,VALID,0,VALID,93.1048,VALID,0,VALID,19.7793,VALID,136,VALID,0.160547,
2012-01-22, 00:37:04,VALID,917.152,VALID,0,VALID,93.0743,VALID,0,VALID,19.7793,VALID,136,VALID,0.607422,
2012-01-22, 00:38:04,VALID,917.143,VALID,0,VALID,93.059,VALID,0.107441,VALID,19.7193,VALID,136,VALID,0.939062,
2012-01-22, 00:39:04,VALID,917.151,VALID,0,VALID,93.2344,VALID,0,VALID,19.7208,VALID,136,VALID,1.32891,
2012-01-22, 00:40:04,VALID,917.125,VALID,0,VALID,93.3182,VALID,0,VALID,19.7013,VALID,136,VALID,1.45938,
2012-01-22, 00:41:04,VALID,917.085,VALID,0,VALID,93.3792,VALID,0,VALID,19.6803,VALID,116,VALID,1.65703,
2012-01-22, 00:42:04,VALID,917.058,VALID,0,VALID,93.2954,VALID,0,VALID,19.6833,VALID,116,VALID,1.38984,
2012-01-22, 00:43:04,VALID,917.029,VALID,0,VALID,93.2115,VALID,0,VALID,19.6833,VALID,116,VALID,1.3375,
2012-01-22, 00:44:04,VALID,917.02,VALID,0,VALID,93.2268,VALID,0,VALID,19.6818,VALID,115,VALID,1.23047,
2012-01-22, 00:45:04,VALID,917.008,VALID,0,VALID,93.1124,VALID,0,VALID,19.7028,VALID,116,VALID,1.1125,
2012-01-22, 00:46:04,VALID,916.982,VALID,0,VALID,93.0209,VALID,0,VALID,19.7013,VALID,122,VALID,1.19531,
2012-01-22, 00:47:04,VALID,916.959,VALID,0,VALID,92.8303,VALID,0,VALID,19.7028,VALID,131,VALID,1.1543,
2012-01-22, 00:48:04,VALID,916.95,VALID,0,VALID,92.3119,VALID,0,VALID,19.6038,VALID,135,VALID,1.14336,
2012-01-22, 00:49:04,VALID,916.976,VALID,0,VALID,92.7389,VALID,0,VALID,19.5663,VALID,135,VALID,0.925391,
2012-01-22, 00:50:04,VALID,916.956,VALID,0,VALID,93.1429,VALID,0,VALID,19.5273,VALID,135,VALID,0.906641,
2012-01-22, 00:51:04,VALID,916.942,VALID,0,VALID,93.4097,VALID,0,VALID,19.5078,VALID,135,VALID,0.817969,
2012-01-22, 00:52:04,VALID,916.929,VALID,0,VALID,93.6537,VALID,0,VALID,19.5078,VALID,135,VALID,1.0875,
2012-01-22, 00:53:04,VALID,916.906,VALID,0,VALID,93.9434,VALID,0,VALID,19.4283,VALID,135,VALID,1.28477,
2012-01-22, 00:54:04,VALID,916.91,VALID,0,VALID,94.2483,VALID,0,VALID,19.4298,VALID,135,VALID,1.46133,
2012-01-22, 00:55:04,VALID,916.904,VALID,0,VALID,94.3931,VALID,0,VALID,19.4103,VALID,135,VALID,1.01953,
2012-01-22, 00:56:04,VALID,916.895,VALID,0,VALID,94.5075,VALID,0,VALID,19.4103,VALID,135,VALID,1.23594,
2012-01-22, 00:57:04,VALID,916.913,VALID,0,VALID,94.5151,VALID,0,VALID,19.4283,VALID,135,VALID,1.00937,
2012-01-22, 00:58:04,VALID,916.904,VALID,0,VALID,94.5304,VALID,0,VALID,19.4088,VALID,135,VALID,1.09375,
2012-01-22, 00:59:04,VALID,916.915,VALID,0,VALID,94.4846,VALID,0.107441,VALID,19.3893,VALID,135,VALID,0.924219,
2012-01-22, 01:00:04,VALID,916.89,VALID,0,VALID,94.4465,VALID,0.107441,VALID,19.3893,VALID,135,VALID,0.56875,
2012-01-22, 01:01:04,VALID,916.898,VALID,0,VALID,94.3017,VALID,0,VALID,19.3698,VALID,135,VALID,0.642187,
2012-01-22, 01:02:04,VALID,916.887,VALID,0,VALID,94.416,VALID,0,VALID,19.3893,VALID,135,VALID,1.00469,
2012-01-22, 01:03:04,VALID,916.852,VALID,0,VALID,94.3703,VALID,0,VALID,19.3893,VALID,135,VALID,0.914453,
2012-01-22, 01:04:04,VALID,916.863,VALID,0,VALID,94.4922,VALID,0,VALID,19.3893,VALID,110,VALID,1.1832,
2012-01-22, 01:05:04,VALID,916.827,VALID,0,VALID,94.5304,VALID,0.107441,VALID,19.4088,VALID,120,VALID,1.23984,
2012-01-22, 01:06:04,VALID,916.877,VALID,0,VALID,94.5075,VALID,0,VALID,19.4088,VALID,124,VALID,1.02383,
2012-01-22, 01:07:04,VALID,916.847,VALID,0,VALID,94.4999,VALID,0,VALID,19.4478,VALID,124,VALID,0.960156,
2012-01-22, 01:08:04,VALID,916.868,VALID,0,VALID,94.4313,VALID,0,VALID,19.4478,VALID,124,VALID,0.910547,
2012-01-22, 01:09:04,VALID,916.886,VALID,0,VALID,94.3017,VALID,0.107441,VALID,19.4673,VALID,124,VALID,0.883203,
2012-01-22, 01:10:04,VALID,916.887,VALID,0,VALID,94.1492,VALID,0,VALID,19.4868,VALID,124,VALID,1.21797,
2012-01-22, 01:11:04,VALID,916.888,VALID,0,VALID,93.9738,VALID,0,VALID,19.5258,VALID,125,VALID,1.03828,
2012-01-22, 01:12:04,VALID,916.853,VALID,0,VALID,93.7223,VALID,0.107441,VALID,19.5258,VALID,131,VALID,0.839453,
2012-01-22, 01:13:04,VALID,916.829,VALID,0,VALID,93.4173,VALID,0,VALID,19.5663,VALID,131,VALID,0.853125,
2012-01-22, 01:14:04,VALID,916.81,VALID,0,VALID,93.0895,VALID,0,VALID,19.5258,VALID,131,VALID,0.704687,
2012-01-22, 01:15:04,VALID,916.792,VALID,0,VALID,92.9066,VALID,0.107441,VALID,19.5258,VALID,131,VALID,0.694141,
2012-01-22, 01:16:04,VALID,916.798,VALID,0,VALID,92.7617,VALID,0.107441,VALID,19.5258,VALID,131,VALID,0.460938,
2012-01-22, 01:17:04,VALID,916.783,VALID,0,VALID,92.655,VALID,0,VALID,19.5663,VALID,131,VALID,0.716797,
2012-01-22, 01:18:04,VALID,916.783,VALID,0,VALID,92.5483,VALID,0,VALID,19.5663,VALID,131,VALID,0.748828,
2012-01-22, 01:19:04,VALID,916.734,VALID,0,VALID,92.6093,VALID,0,VALID,19.5453,VALID,131,VALID,0.675391,
2012-01-22, 01:20:04,VALID,916.733,VALID,0,VALID,92.6702,VALID,0,VALID,19.5258,VALID,131,VALID,0.745703,
2012-01-22, 01:21:04,VALID,916.733,VALID,0,VALID,92.8685,VALID,0.107441,VALID,19.5258,VALID,131,VALID,0.817969,
2012-01-22, 01:22:04,VALID,916.697,VALID,0,VALID,92.9371,VALID,0.107441,VALID,19.5063,VALID,131,VALID,0.805469,
2012-01-22, 01:23:04,VALID,916.683,VALID,0,VALID,93.0743,VALID,0,VALID,19.4688,VALID,131,VALID,0.867578,
2012-01-22, 01:24:04,VALID,916.71,VALID,0,VALID,92.9218,VALID,0,VALID,19.3698,VALID,131,VALID,0.896094,
2012-01-22, 01:25:04,VALID,916.728,VALID,0,VALID,93.425,VALID,0.107441,VALID,19.3308,VALID,131,VALID,1.20352,
2012-01-22, 01:26:04,VALID,916.687,VALID,0,VALID,93.7451,VALID,0.107441,VALID,19.2918,VALID,131,VALID,1.27266,
2012-01-22, 01:27:04,VALID,916.666,VALID,0,VALID,93.8824,VALID,0,VALID,19.2348,VALID,132,VALID,1.44141,
2012-01-22, 01:28:04,VALID,916.669,VALID,0,VALID,94.1492,VALID,0,VALID,19.2153,VALID,131,VALID,1.1668,
2012-01-22, 01:29:04,VALID,916.646,VALID,0,VALID,94.2559,VALID,0,VALID,19.1763,VALID,132,VALID,1.34961,
2012-01-22, 01:30:04,VALID,916.655,VALID,0,VALID,94.4084,VALID,0,VALID,19.1568,VALID,132,VALID,1.17383,
2012-01-22, 01:31:04,VALID,916.614,VALID,0,VALID,94.4084,VALID,0,VALID,19.1373,VALID,131,VALID,1.05742,
2012-01-22, 01:32:04,VALID,916.625,VALID,0,VALID,94.4999,VALID,0,VALID,19.1178,VALID,131,VALID,1.56992,
2012-01-22, 01:33:04,VALID,916.656,VALID,0,VALID,94.5913,VALID,0,VALID,19.1178,VALID,131,VALID,1.21875,
2012-01-22, 01:34:04,VALID,916.633,VALID,0,VALID,94.6523,VALID,0,VALID,19.0983,VALID,131,VALID,1.00195,
2012-01-22, 01:35:04,VALID,916.662,VALID,0,VALID,94.66,VALID,0,VALID,19.0983,VALID,131,VALID,0.760156,
2012-01-22, 01:36:04,VALID,916.682,VALID,0,VALID,94.6295,VALID,0,VALID,19.0983,VALID,131,VALID,0.695703,
2012-01-22, 01:37:04,VALID,916.639,VALID,0,VALID,94.5075,VALID,0,VALID,19.1178,VALID,131,VALID,0.700781,
2012-01-22, 01:38:04,VALID,916.62,VALID,0,VALID,94.3855,VALID,0,VALID,19.1178,VALID,131,VALID,0.953906,
2012-01-22, 01:39:04,VALID,916.591,VALID,0,VALID,94.2864,VALID,0,VALID,19.1178,VALID,131,VALID,0.877344,
2012-01-22, 01:40:04,VALID,916.589,VALID,0,VALID,94.2026,VALID,0,VALID,19.1178,VALID,132,VALID,0.978125,
2012-01-22, 01:41:04,VALID,916.534,VALID,0,VALID,94.0806,VALID,0,VALID,19.1568,VALID,131,VALID,0.714453,
2012-01-22, 01:42:04,VALID,916.546,VALID,0,VALID,93.8214,VALID,0,VALID,19.1568,VALID,131,VALID,0.60625,
2012-01-22, 01:43:04,VALID,916.503,VALID,0,VALID,93.6308,VALID,0,VALID,19.1373,VALID,131,VALID,0.631641,
2012-01-22, 01:44:04,VALID,916.501,VALID,0,VALID,93.5164,VALID,0,VALID,19.0983,VALID,131,VALID,0.294922,
2012-01-22, 01:45:04,VALID,916.483,VALID,0,VALID,93.5088,VALID,0,VALID,19.1178,VALID,131,VALID,0.551562,
2012-01-22, 01:46:04,VALID,916.479,VALID,0,VALID,93.4859,VALID,0,VALID,19.0983,VALID,131,VALID,0.71875,
2012-01-22, 01:47:04,VALID,916.469,VALID,0,VALID,93.5698,VALID,0,VALID,19.0983,VALID,131,VALID,0.717578,
2012-01-22, 01:48:04,VALID,916.473,VALID,0,VALID,93.5851,VALID,0,VALID,19.1373,VALID,131,VALID,0.229687,
2012-01-22, 01:49:04,VALID,916.459,VALID,0,VALID,93.4478,VALID,0,VALID,19.1373,VALID,131,VALID,0.273047,
2012-01-22, 01:50:04,VALID,916.454,VALID,0,VALID,92.9142,VALID,0,VALID,19.1178,VALID,131,VALID,0.520312,
2012-01-22, 01:51:04,VALID,916.414,VALID,0,VALID,93.0133,VALID,0,VALID,19.1178,VALID,132,VALID,0.627734,
2012-01-22, 01:52:04,VALID,916.432,VALID,0,VALID,93.2572,VALID,0,VALID,19.1178,VALID,131,VALID,0.689844,
2012-01-22, 01:53:04,VALID,916.424,VALID,0,VALID,93.3792,VALID,0,VALID,19.1568,VALID,131,VALID,0.674219,
2012-01-22, 01:54:04,VALID,916.416,VALID,0,VALID,93.2344,VALID,0,VALID,19.1554,VALID,131,VALID,0.437109,
2012-01-22, 01:55:04,VALID,916.413,VALID,0,VALID,93.1276,VALID,0,VALID,19.1554,VALID,131,VALID,0.903125,
2012-01-22, 01:56:04,VALID,916.416,VALID,0,VALID,92.8608,VALID,0,VALID,19.1164,VALID,131,VALID,0.957031,
2012-01-22, 01:57:04,VALID,916.381,VALID,0,VALID,92.8608,VALID,0,VALID,19.0983,VALID,131,VALID,1.01289,
2012-01-22, 01:58:04,VALID,916.305,VALID,0,VALID,93.0209,VALID,0,VALID,19.0788,VALID,131,VALID,0.687109,
2012-01-22, 01:59:04,VALID,916.305,VALID,0,VALID,93.3182,VALID,0,VALID,19.0774,VALID,131,VALID,0.498828,
2012-01-22, 02:00:04,VALID,916.323,VALID,0,VALID,93.4783,VALID,0,VALID,19.0983,VALID,131,VALID,0.739062,
2012-01-22, 02:01:04,VALID,916.315,VALID,0,VALID,93.6003,VALID,0,VALID,19.0788,VALID,131,VALID,0.777734,
2012-01-22, 02:02:04,VALID,916.324,VALID,0,VALID,93.6918,VALID,0.107441,VALID,19.0384,VALID,131,VALID,0.507422,
2012-01-22, 02:03:04,VALID,916.328,VALID,0,VALID,93.7756,VALID,0,VALID,19.0593,VALID,131,VALID,0.401172,
2012-01-22, 02:04:04,VALID,916.307,VALID,0,VALID,93.7375,VALID,0,VALID,19.0384,VALID,131,VALID,0.225781,
2012-01-22, 02:05:04,VALID,916.288,VALID,0,VALID,93.5927,VALID,0,VALID,19.0384,VALID,131,VALID,0.353125,
2012-01-22, 02:06:04,VALID,916.252,VALID,0,VALID,93.3716,VALID,0,VALID,19.0398,VALID,131,VALID,0.669922,
2012-01-22, 02:07:05,VALID,916.233,VALID,0,VALID,93.3259,VALID,0,VALID,19.0203,VALID,131,VALID,0.544141,
2012-01-22, 02:08:05,VALID,916.22,VALID,0,VALID,93.4859,VALID,0,VALID,18.9814,VALID,131,VALID,0.408984,
2012-01-22, 02:09:05,VALID,916.201,VALID,0,VALID,93.6003,VALID,0,VALID,18.9619,VALID,131,VALID,0.217187,
2012-01-22, 02:10:05,VALID,916.161,VALID,0,VALID,93.3792,VALID,0,VALID,18.9229,VALID,131,VALID,0.432813,
2012-01-22, 02:11:05,VALID,916.175,VALID,0,VALID,93.4707,VALID,0,VALID,18.8839,VALID,131,VALID,0.297266,
2012-01-22, 02:12:05,VALID,916.142,VALID,0,VALID,93.7528,VALID,0,VALID,18.824,VALID,131,VALID,0.392969,
2012-01-22, 02:13:05,VALID,916.148,VALID,0,VALID,94.0958,VALID,0,VALID,18.8449,VALID,131,VALID,0.562891,
2012-01-22, 02:14:05,VALID,916.146,VALID,0,VALID,94.3169,VALID,0,VALID,18.8254,VALID,131,VALID,0.476953,
2012-01-22, 02:15:05,VALID,916.128,VALID,0,VALID,93.9357,VALID,0.107441,VALID,18.746,VALID,131,VALID,0.750391,
2012-01-22, 02:16:05,VALID,916.12,VALID,0,VALID,93.364,VALID,0,VALID,18.6304,VALID,131,VALID,0.587891,
2012-01-22, 02:17:05,VALID,916.118,VALID,0,VALID,93.768,VALID,0,VALID,18.5316,VALID,131,VALID,0.421875,
2012-01-22, 02:18:05,VALID,916.077,VALID,0,VALID,94.4846,VALID,0,VALID,18.5525,VALID,131,VALID,0.632422,
2012-01-22, 02:19:05,VALID,916.08,VALID,0,VALID,95.003,VALID,0.107441,VALID,18.59,VALID,131,VALID,0.607813,
2012-01-22, 02:20:05,VALID,916.05,VALID,0,VALID,95.1707,VALID,0,VALID,18.6499,VALID,131,VALID,0,
2012-01-22, 02:21:05,VALID,916.031,VALID,0,VALID,95.2393,VALID,0,VALID,18.7084,VALID,131,VALID,0.646875,
2012-01-22, 02:22:05,VALID,916.056,VALID,0,VALID,94.3855,VALID,0,VALID,18.6694,VALID,131,VALID,0.659375,
2012-01-22, 02:23:05,VALID,916.006,VALID,0,VALID,93.6308,VALID,0,VALID,18.533,VALID,131,VALID,0.339453,
2012-01-22, 02:24:05,VALID,916.021,VALID,0,VALID,93.3868,VALID,0.107441,VALID,18.4926,VALID,131,VALID,0.483594,
2012-01-22, 02:25:05,VALID,916.042,VALID,0,VALID,93.7375,VALID,0,VALID,18.5135,VALID,131,VALID,0.471875,
2012-01-22, 02:26:05,VALID,916.048,VALID,0,VALID,94.2254,VALID,0,VALID,18.5705,VALID,131,VALID,0.0195313,
2012-01-22, 02:27:05,VALID,916.029,VALID,0,VALID,93.5088,VALID,0.107441,VALID,18.533,VALID,131,VALID,0.469922,
2012-01-22, 02:28:05,VALID,916.022,VALID,0,VALID,93.9434,VALID,0,VALID,18.5525,VALID,131,VALID,0.66875,
2012-01-22, 02:29:05,VALID,915.998,VALID,0,VALID,94.1034,VALID,0,VALID,18.5511,VALID,131,VALID,0.479297,
2012-01-22, 02:30:05,VALID,916.005,VALID,0,VALID,94.6752,VALID,0,VALID,18.6095,VALID,131,VALID,0.544922,
2012-01-22, 02:31:05,VALID,915.977,VALID,0,VALID,94.8505,VALID,0,VALID,18.6694,VALID,131,VALID,0.777344,
2012-01-22, 02:32:05,VALID,915.982,VALID,0,VALID,94.1949,VALID,0,VALID,18.5914,VALID,131,VALID,0.857031,
2012-01-22, 02:33:05,VALID,915.98,VALID,0,VALID,94.1568,VALID,0,VALID,18.5121,VALID,131,VALID,0.687891,
2012-01-22, 02:34:05,VALID,915.989,VALID,0,VALID,94.2712,VALID,0,VALID,18.4355,VALID,131,VALID,0.420312,
2012-01-22, 02:35:05,VALID,916.009,VALID,0,VALID,95.2622,VALID,0,VALID,18.5525,VALID,131,VALID,0.299219,
2012-01-22, 02:36:05,VALID,916.016,VALID,0,VALID,95.5138,VALID,0,VALID,18.629,VALID,131,VALID,0.414063,
2012-01-22, 02:37:05,VALID,916.004,VALID,0,VALID,95.5824,VALID,0,VALID,18.6889,VALID,131,VALID,0.366016,
2012-01-22, 02:38:05,VALID,916.006,VALID,0,VALID,95.0106,VALID,0,VALID,18.6694,VALID,131,VALID,0.126172,
2012-01-22, 02:39:05,VALID,916.021,VALID,0,VALID,94.6371,VALID,0,VALID,18.6109,VALID,131,VALID,0,
2012-01-22, 02:40:05,VALID,916.004,VALID,0,VALID,94.7972,VALID,0,VALID,18.6485,VALID,131,VALID,0,
2012-01-22, 02:41:05,VALID,915.995,VALID,0,VALID,94.9192,VALID,0,VALID,18.7084,VALID,131,VALID,0,
2012-01-22, 02:42:05,VALID,915.972,VALID,0,VALID,94.9039,VALID,0,VALID,18.707,VALID,131,VALID,0.622266,
2012-01-22, 02:43:05,VALID,915.968,VALID,0,VALID,94.8658,VALID,0,VALID,18.7474,VALID,131,VALID,0.409766,
2012-01-22, 02:44:05,VALID,915.981,VALID,0,VALID,94.6981,VALID,0,VALID,18.707,VALID,131,VALID,0,
2012-01-22, 02:45:05,VALID,915.981,VALID,0,VALID,94.7896,VALID,0,VALID,18.707,VALID,131,VALID,0.132031,
2012-01-22, 02:46:05,VALID,915.995,VALID,0,VALID,94.9268,VALID,0,VALID,18.7669,VALID,131,VALID,0.220313,
2012-01-22, 02:47:05,VALID,916.006,VALID,0,VALID,94.9878,VALID,0,VALID,18.785,VALID,131,VALID,0.234766,
2012-01-22, 02:48:05,VALID,916.006,VALID,0,VALID,94.66,VALID,0,VALID,18.7655,VALID,131,VALID,0.398828,
2012-01-22, 02:49:05,VALID,916.018,VALID,0,VALID,94.5913,VALID,0,VALID,18.7669,VALID,131,VALID,0.300391,
2012-01-22, 02:50:05,VALID,916.053,VALID,0,VALID,94.6447,VALID,0,VALID,18.7669,VALID,131,VALID,0.114063,
2012-01-22, 02:51:05,VALID,916.057,VALID,0,VALID,94.7667,VALID,0,VALID,18.8045,VALID,131,VALID,0.090625,
2012-01-22, 02:52:05,VALID,916.02,VALID,0,VALID,94.7972,VALID,0,VALID,18.8839,VALID,131,VALID,0,
2012-01-22, 02:53:05,VALID,916.034,VALID,0,VALID,94.5837,VALID,0,VALID,18.9229,VALID,131,VALID,0.388281,
2012-01-22, 02:54:05,VALID,916.014,VALID,0,VALID,93.8061,VALID,0,VALID,18.9229,VALID,131,VALID,0,
2012-01-22, 02:55:05,VALID,915.997,VALID,0,VALID,93.0972,VALID,0,VALID,18.8839,VALID,131,VALID,0,
2012-01-22, 02:56:05,VALID,915.989,VALID,0,VALID,92.9828,VALID,0,VALID,18.9034,VALID,131,VALID,0,
2012-01-22, 02:57:05,VALID,915.974,VALID,0,VALID,92.6474,VALID,0,VALID,18.9048,VALID,131,VALID,0.314453,
2012-01-22, 02:58:05,VALID,915.98,VALID,0,VALID,93.1505,VALID,0,VALID,18.9229,VALID,131,VALID,0.304688,
2012-01-22, 02:59:05,VALID,915.977,VALID,0,VALID,93.5393,VALID,0,VALID,18.9214,VALID,131,VALID,0.309766,
2012-01-22, 03:00:05,VALID,915.977,VALID,0,VALID,93.5088,VALID,0.107441,VALID,19.0008,VALID,131,VALID,0.000390625,
2012-01-22, 03:01:05,VALID,915.977,VALID,0,VALID,93.2572,VALID,0,VALID,19.0203,VALID,131,VALID,0.0046875,
2012-01-22, 03:02:05,VALID,915.956,VALID,0,VALID,92.8151,VALID,0,VALID,18.9994,VALID,131,VALID,0.460156,
2012-01-22, 03:03:05,VALID,915.959,VALID,0,VALID,92.7389,VALID,0,VALID,18.9799,VALID,131,VALID,0.305469,
2012-01-22, 03:04:05,VALID,915.958,VALID,0,VALID,92.5635,VALID,0,VALID,18.9814,VALID,131,VALID,0.375,
2012-01-22, 03:05:05,VALID,915.963,VALID,0,VALID,92.5254,VALID,0,VALID,18.9604,VALID,131,VALID,0.467187,
2012-01-22, 03:06:05,VALID,915.941,VALID,0,VALID,92.6245,VALID,0.107441,VALID,18.9604,VALID,131,VALID,0.00195313,
2012-01-22, 03:07:05,VALID,915.933,VALID,0,VALID,92.5635,VALID,0.107441,VALID,18.9604,VALID,131,VALID,0,
2012-01-22, 03:08:05,VALID,915.906,VALID,0,VALID,92.3958,VALID,0.107441,VALID,18.9799,VALID,131,VALID,0.275781,
2012-01-22, 03:09:05,VALID,915.907,VALID,0,VALID,90.9931,VALID,0,VALID,19.0203,VALID,131,VALID,0.427344,
2012-01-22, 03:10:05,VALID,915.89,VALID,0,VALID,91.0236,VALID,0,VALID,19.0398,VALID,131,VALID,0.718359,
2012-01-22, 03:11:05,VALID,915.881,VALID,0,VALID,90.711,VALID,0.107441,VALID,19.1373,VALID,131,VALID,0.363281,
2012-01-22, 03:12:05,VALID,915.882,VALID,0,VALID,90.1698,VALID,0,VALID,19.2348,VALID,131,VALID,0.261328,
2012-01-22, 03:13:05,VALID,915.851,VALID,0,VALID,89.5751,VALID,0,VALID,19.2933,VALID,131,VALID,0.00585938,
2012-01-22, 03:14:05,VALID,915.871,VALID,0,VALID,88.8738,VALID,0,VALID,19.3323,VALID,131,VALID,0.0382813,
2012-01-22, 03:15:05,VALID,915.853,VALID,0,VALID,87.7303,VALID,0,VALID,19.3128,VALID,131,VALID,0.707422,
2012-01-22, 03:16:05,VALID,915.872,VALID,0,VALID,87.2424,VALID,0,VALID,19.4883,VALID,131,VALID,0.225,
2012-01-22, 03:17:05,VALID,915.878,VALID,0,VALID,87.1356,VALID,0,VALID,19.5468,VALID,131,VALID,0,
2012-01-22, 03:18:05,VALID,915.889,VALID,0,VALID,87.4177,VALID,0,VALID,19.4883,VALID,131,VALID,0.430078,
2012-01-22, 03:19:05,VALID,915.843,VALID,0,VALID,87.9437,VALID,0,VALID,19.4103,VALID,131,VALID,0,
2012-01-22, 03:20:05,VALID,915.833,VALID,0,VALID,87.7455,VALID,0,VALID,19.4493,VALID,131,VALID,0.31875,
2012-01-22, 03:21:05,VALID,915.792,VALID,0,VALID,86.6859,VALID,0,VALID,19.4673,VALID,131,VALID,0.0984375,
2012-01-22, 03:22:05,VALID,915.827,VALID,0,VALID,86.4267,VALID,0,VALID,19.5663,VALID,131,VALID,0,
2012-01-22, 03:23:05,VALID,915.818,VALID,0,VALID,86.5258,VALID,0,VALID,19.5663,VALID,131,VALID,0,
2012-01-22, 03:24:05,VALID,915.847,VALID,0,VALID,86.5944,VALID,0,VALID,19.5258,VALID,131,VALID,0,
2012-01-22, 03:25:05,VALID,915.767,VALID,0,VALID,86.6935,VALID,0.107441,VALID,19.5273,VALID,131,VALID,0,
2012-01-22, 03:26:05,VALID,915.766,VALID,0,VALID,86.8155,VALID,0,VALID,19.4493,VALID,131,VALID,0.570703,
2012-01-22, 03:27:05,VALID,915.768,VALID,0,VALID,86.8155,VALID,0,VALID,19.3713,VALID,131,VALID,0.446875,
2012-01-22, 03:28:05,VALID,915.77,VALID,0,VALID,86.7316,VALID,0,VALID,19.3713,VALID,131,VALID,0.191797,
2012-01-22, 03:29:05,VALID,915.802,VALID,0,VALID,86.4648,VALID,0,VALID,19.3713,VALID,131,VALID,0.558594,
2012-01-22, 03:30:05,VALID,915.797,VALID,0,VALID,85.893,VALID,0,VALID,19.3698,VALID,131,VALID,0.275781,
2012-01-22, 03:31:05,VALID,915.804,VALID,0,VALID,84.963,VALID,0,VALID,19.3908,VALID,131,VALID,0.495703,
2012-01-22, 03:32:05,VALID,915.828,VALID,0,VALID,84.2769,VALID,0,VALID,19.4298,VALID,131,VALID,0.771094,
2012-01-22, 03:33:05,VALID,915.838,VALID,0,VALID,83.8271,VALID,0,VALID,19.4868,VALID,131,VALID,0.535156,
2012-01-22, 03:34:05,VALID,915.814,VALID,0,VALID,83.8957,VALID,0,VALID,19.5468,VALID,131,VALID,0.253516,
2012-01-22, 03:35:05,VALID,915.782,VALID,0,VALID,82.7903,VALID,0,VALID,19.5648,VALID,197,VALID,0.964453,
2012-01-22, 03:36:05,VALID,915.76,VALID,0,VALID,82.5463,VALID,0,VALID,19.6638,VALID,197,VALID,0.241406,
2012-01-22, 03:37:05,VALID,915.794,VALID,0,VALID,83.0647,VALID,0,VALID,19.6443,VALID,197,VALID,0,
2012-01-22, 03:38:05,VALID,915.81,VALID,0,VALID,83.5526,VALID,0,VALID,19.5258,VALID,197,VALID,0,
2012-01-22, 03:39:05,VALID,915.83,VALID,0,VALID,84.1549,VALID,0,VALID,19.4088,VALID,197,VALID,0,
2012-01-22, 03:40:05,VALID,915.84,VALID,0,VALID,84.8715,VALID,0,VALID,19.3128,VALID,197,VALID,0.282813,
2012-01-22, 03:41:05,VALID,915.85,VALID,0,VALID,85.6491,VALID,0,VALID,19.1359,VALID,197,VALID,0,
2012-01-22, 03:42:05,VALID,915.861,VALID,0,VALID,86.0455,VALID,0,VALID,19.0593,VALID,197,VALID,0.240625,
2012-01-22, 03:43:05,VALID,915.88,VALID,0,VALID,86.3352,VALID,0,VALID,19.0008,VALID,197,VALID,0.262109,
2012-01-22, 03:44:05,VALID,915.884,VALID,0,VALID,86.4953,VALID,0,VALID,18.9814,VALID,197,VALID,0.00195313,